Year,Month,Day,Hour,Minute,Value (Times are PST for temperature in C)
2018,09,17,00,03,9.60
2018,09,17,00,13,9.00
2018,09,17,00,15,8.90
2018,09,17,00,19,8.90
2018,09,17,00,21,8.80
2018,09,17,00,27,8.80
2018,09,17,00,28,8.80
2018,09,17,00,29,8.70
2018,09,17,00,30,8.70
2018,09,17,00,31,8.70
2018,09,17,00,32,8.70
2018,09,17,00,35,8.60
2018,09,17,00,36,8.60
2018,09,17,00,37,8.60
2018,09,17,00,38,8.60
2018,09,17,00,39,8.60
2018,09,17,00,40,8.60
2018,09,17,00,41,8.60
2018,09,17,00,42,8.60
2018,09,17,00,43,8.50
2018,09,17,00,44,8.50
2018,09,17,00,45,8.50
2018,09,17,00,46,8.50
2018,09,17,00,47,8.40
2018,09,17,01,10,8.20
2018,09,17,01,11,8.20
2018,09,17,01,14,8.10
2018,09,17,01,15,8.10
2018,09,17,01,18,7.90
2018,09,17,01,19,7.90
2018,09,17,01,20,7.90
2018,09,17,01,22,7.80
2018,09,17,01,24,7.80
2018,09,17,01,25,7.80
2018,09,17,01,26,7.80
2018,09,17,01,27,7.70
2018,09,17,01,28,7.70
2018,09,17,01,29,7.70
2018,09,17,01,30,7.60
2018,09,17,01,31,7.60
2018,09,17,01,32,7.60
2018,09,17,01,33,7.60
2018,09,17,01,34,7.60
2018,09,17,01,35,7.60
2018,09,17,01,36,7.60
2018,09,17,01,37,7.60
2018,09,17,01,38,7.60
2018,09,17,01,39,7.60
2018,09,17,01,40,7.60
2018,09,17,01,41,7.60
2018,09,17,01,42,7.60
2018,09,17,01,43,7.50
2018,09,17,01,44,7.50
2018,09,17,01,45,7.50
2018,09,17,01,46,7.50
2018,09,17,01,47,7.50
2018,09,17,01,48,7.50
2018,09,17,01,49,7.50
2018,09,17,01,50,7.50
2018,09,17,01,51,7.50
2018,09,17,01,52,7.50
2018,09,17,01,53,7.50
2018,09,17,01,54,7.40
2018,09,17,01,55,7.40
2018,09,17,01,56,7.40
2018,09,17,01,57,7.40
2018,09,17,01,58,7.30
2018,09,17,01,59,7.30
2018,09,17,02,00,7.30
2018,09,17,02,01,7.30
2018,09,17,02,02,7.30
2018,09,17,02,03,7.30
2018,09,17,02,04,7.30
2018,09,17,02,05,7.30
2018,09,17,02,06,7.30
2018,09,17,02,07,7.40
2018,09,17,02,08,7.40
2018,09,17,02,09,7.40
2018,09,17,02,10,7.40
2018,09,17,02,11,7.40
2018,09,17,02,12,7.40
2018,09,17,02,13,7.40
2018,09,17,02,14,7.40
2018,09,17,02,15,7.30
2018,09,17,02,16,7.30
2018,09,17,02,17,7.30
2018,09,17,02,18,7.30
2018,09,17,02,19,7.30
2018,09,17,02,20,7.30
2018,09,17,02,21,7.20
2018,09,17,02,22,7.20
2018,09,17,02,23,7.20
2018,09,17,02,24,7.10
2018,09,17,02,25,7.10
2018,09,17,02,26,7.10
2018,09,17,02,27,7.10
2018,09,17,02,28,7.10
2018,09,17,02,29,7.00
2018,09,17,02,30,7.00
2018,09,17,02,31,7.00
2018,09,17,02,32,6.90
2018,09,17,02,33,6.90
2018,09,17,02,34,6.90
2018,09,17,02,35,6.90
2018,09,17,02,36,6.90
2018,09,17,02,37,6.90
2018,09,17,02,38,6.90
2018,09,17,02,39,6.90
2018,09,17,02,40,6.90
2018,09,17,02,41,6.90
2018,09,17,02,42,6.90
2018,09,17,02,43,6.90
2018,09,17,02,44,6.90
2018,09,17,02,45,6.90
2018,09,17,02,46,6.90
2018,09,17,02,47,6.90
2018,09,17,02,48,6.80
2018,09,17,02,49,6.80
2018,09,17,02,50,6.80
2018,09,17,02,51,6.80
2018,09,17,02,52,6.80
2018,09,17,02,53,6.80
2018,09,17,02,54,6.80
2018,09,17,02,55,6.80
2018,09,17,02,56,6.80
2018,09,17,02,57,6.80
2018,09,17,02,58,6.80
2018,09,17,02,59,6.80
2018,09,17,03,00,6.80
2018,09,17,03,01,6.90
2018,09,17,03,02,6.90
2018,09,17,03,03,6.90
2018,09,17,03,04,6.90
2018,09,17,03,05,6.90
2018,09,17,03,06,6.90
2018,09,17,03,07,6.90
2018,09,17,03,08,6.90
2018,09,17,03,09,6.90
2018,09,17,03,10,6.90
2018,09,17,03,11,6.80
2018,09,17,03,12,6.80
2018,09,17,03,13,6.80
2018,09,17,03,14,6.80
2018,09,17,03,15,6.80
2018,09,17,03,16,6.80
2018,09,17,03,17,6.80
2018,09,17,03,18,6.80
2018,09,17,03,19,6.80
2018,09,17,03,20,6.80
2018,09,17,03,21,6.80
2018,09,17,03,22,6.80
2018,09,17,03,23,6.70
2018,09,17,03,24,6.70
2018,09,17,03,25,6.70
2018,09,17,03,26,6.70
2018,09,17,03,27,6.70
2018,09,17,03,28,6.70
2018,09,17,03,29,6.60
2018,09,17,03,30,6.60
2018,09,17,03,31,6.60
2018,09,17,03,32,6.60
2018,09,17,03,33,6.60
2018,09,17,03,34,6.60
2018,09,17,03,35,6.50
2018,09,17,03,36,6.50
2018,09,17,03,37,6.50
2018,09,17,03,38,6.50
2018,09,17,03,39,6.50
2018,09,17,03,40,6.50
2018,09,17,03,41,6.50
2018,09,17,03,42,6.50
2018,09,17,03,43,6.50
2018,09,17,03,44,6.50
2018,09,17,03,45,6.50
2018,09,17,03,46,6.50
2018,09,17,03,47,6.50
2018,09,17,03,48,6.50
2018,09,17,03,49,6.40
2018,09,17,03,50,6.40
2018,09,17,03,51,6.40
2018,09,17,03,52,6.40
2018,09,17,03,53,6.40
2018,09,17,03,54,6.40
2018,09,17,03,55,6.40
2018,09,17,03,56,6.30
2018,09,17,03,57,6.30
2018,09,17,03,58,6.30
2018,09,17,03,59,6.30
2018,09,17,04,00,6.30
2018,09,17,04,01,6.30
2018,09,17,04,02,6.30
2018,09,17,04,03,6.30
2018,09,17,04,04,6.30
2018,09,17,04,05,6.30
2018,09,17,04,06,6.30
2018,09,17,04,07,6.40
2018,09,17,04,08,6.40
2018,09,17,04,09,6.40
2018,09,17,04,10,6.40
2018,09,17,04,11,6.40
2018,09,17,04,12,6.40
2018,09,17,04,13,6.40
2018,09,17,04,14,6.40
2018,09,17,04,15,6.40
2018,09,17,04,16,6.40
2018,09,17,04,17,6.40
2018,09,17,04,18,6.50
2018,09,17,04,19,6.50
2018,09,17,04,20,6.50
2018,09,17,04,21,6.50
2018,09,17,04,22,6.60
2018,09,17,04,23,6.60
2018,09,17,04,24,6.60
2018,09,17,04,25,6.50
2018,09,17,04,26,6.50
2018,09,17,04,27,6.60
2018,09,17,04,28,6.60
2018,09,17,04,29,6.60
2018,09,17,04,30,6.60
2018,09,17,04,31,6.60
2018,09,17,04,32,6.60
2018,09,17,04,33,6.60
2018,09,17,04,34,6.60
2018,09,17,04,35,6.60
2018,09,17,04,36,6.60
2018,09,17,04,37,6.50
2018,09,17,04,38,6.50
2018,09,17,04,39,6.50
2018,09,17,04,40,6.50
2018,09,17,04,41,6.50
2018,09,17,04,42,6.50
2018,09,17,04,43,6.50
2018,09,17,04,44,6.50
2018,09,17,04,45,6.50
2018,09,17,04,46,6.50
2018,09,17,04,47,6.50
2018,09,17,04,48,6.40
2018,09,17,04,49,6.40
2018,09,17,04,50,6.40
2018,09,17,04,51,6.30
2018,09,17,04,52,6.30
2018,09,17,04,53,6.30
2018,09,17,04,54,6.20
2018,09,17,04,55,6.20
2018,09,17,04,56,6.20
2018,09,17,04,57,6.20
2018,09,17,04,58,6.20
2018,09,17,04,59,6.10
2018,09,17,05,00,6.10
2018,09,17,05,01,6.10
2018,09,17,05,02,6.10
2018,09,17,05,03,6.10
2018,09,17,05,04,6.10
2018,09,17,05,05,6.10
2018,09,17,05,06,6.10
2018,09,17,05,07,6.10
2018,09,17,05,08,6.10
2018,09,17,05,09,6.10
2018,09,17,05,10,6.10
2018,09,17,05,11,6.10
2018,09,17,05,12,6.10
2018,09,17,05,13,6.10
2018,09,17,05,14,6.10
2018,09,17,05,15,6.10
2018,09,17,05,16,6.10
2018,09,17,05,17,6.10
2018,09,17,05,18,6.10
2018,09,17,05,19,6.10
2018,09,17,05,20,6.10
2018,09,17,05,21,6.10
2018,09,17,05,22,6.00
2018,09,17,05,23,6.00
2018,09,17,05,24,6.00
2018,09,17,05,25,5.90
2018,09,17,05,26,5.90
2018,09,17,05,27,5.90
2018,09,17,05,28,5.90
2018,09,17,05,29,6.00
2018,09,17,05,30,6.00
2018,09,17,05,31,6.10
2018,09,17,05,32,6.10
2018,09,17,05,33,6.10
2018,09,17,05,34,6.20
2018,09,17,05,35,6.20
2018,09,17,05,36,6.20
2018,09,17,05,37,6.20
2018,09,17,05,38,6.20
2018,09,17,05,39,6.30
2018,09,17,05,40,6.30
2018,09,17,05,41,6.30
2018,09,17,05,42,6.30
2018,09,17,05,43,6.30
2018,09,17,05,44,6.30
2018,09,17,05,45,6.30
2018,09,17,05,46,6.30
2018,09,17,05,47,6.30
2018,09,17,05,48,6.30
2018,09,17,05,49,6.30
2018,09,17,05,50,6.30
2018,09,17,05,51,6.30
2018,09,17,05,52,6.30
2018,09,17,05,53,6.30
2018,09,17,05,54,6.30
2018,09,17,05,55,6.30
2018,09,17,05,56,6.30
2018,09,17,05,57,6.30
2018,09,17,05,58,6.30
2018,09,17,05,59,6.20
2018,09,17,06,00,6.30
2018,09,17,06,01,6.30
2018,09,17,06,02,6.30
2018,09,17,06,03,6.30
2018,09,17,06,04,6.30
2018,09,17,06,05,6.30
2018,09,17,06,06,6.30
2018,09,17,06,07,6.30
2018,09,17,06,08,6.20
2018,09,17,06,09,6.20
2018,09,17,06,10,6.10
2018,09,17,06,11,6.10
2018,09,17,06,12,6.10
2018,09,17,06,13,6.00
2018,09,17,06,14,6.00
2018,09,17,06,15,6.00
2018,09,17,06,16,5.90
2018,09,17,06,17,5.90
2018,09,17,06,18,5.80
2018,09,17,06,19,5.80
2018,09,17,06,20,5.70
2018,09,17,06,21,5.70
2018,09,17,06,22,5.70
2018,09,17,06,23,5.70
2018,09,17,06,24,5.70
2018,09,17,06,25,5.70
2018,09,17,06,26,5.70
2018,09,17,06,27,5.70
2018,09,17,06,28,5.80
2018,09,17,06,29,5.80
2018,09,17,06,30,5.80
2018,09,17,06,31,5.80
2018,09,17,06,32,5.80
2018,09,17,06,33,5.90
2018,09,17,06,34,5.90
2018,09,17,06,35,5.90
2018,09,17,06,36,5.90
2018,09,17,06,37,5.80
2018,09,17,06,38,5.90
2018,09,17,06,39,5.80
2018,09,17,06,40,5.90
2018,09,17,06,41,5.90
2018,09,17,06,42,5.90
2018,09,17,06,43,5.90
2018,09,17,06,44,5.90
2018,09,17,06,45,5.90
2018,09,17,06,46,5.90
2018,09,17,06,47,5.90
2018,09,17,06,48,5.90
2018,09,17,06,49,5.90
2018,09,17,06,50,5.90
2018,09,17,06,51,5.80
2018,09,17,06,52,5.80
2018,09,17,06,53,5.80
2018,09,17,06,54,5.80
2018,09,17,06,55,5.80
2018,09,17,06,56,5.70
2018,09,17,06,57,5.70
2018,09,17,06,58,5.70
2018,09,17,06,59,5.70
2018,09,17,07,00,5.60
2018,09,17,07,01,5.60
2018,09,17,07,02,5.60
2018,09,17,07,03,5.60
2018,09,17,07,04,5.60
2018,09,17,07,05,5.60
2018,09,17,07,06,5.50
2018,09,17,07,07,5.60
2018,09,17,07,08,5.60
2018,09,17,07,09,5.60
2018,09,17,07,10,5.60
2018,09,17,07,11,5.60
2018,09,17,07,12,5.60
2018,09,17,07,13,5.60
2018,09,17,07,14,5.60
2018,09,17,07,15,5.60
2018,09,17,07,16,5.60
2018,09,17,07,17,5.60
2018,09,17,07,18,5.60
2018,09,17,07,19,5.60
2018,09,17,07,20,5.60
2018,09,17,07,21,5.60
2018,09,17,07,22,5.60
2018,09,17,07,23,5.70
2018,09,17,07,24,5.70
2018,09,17,07,25,5.70
2018,09,17,07,26,5.70
2018,09,17,07,27,5.70
2018,09,17,07,28,5.70
2018,09,17,07,29,5.70
2018,09,17,07,30,5.70
2018,09,17,07,31,5.80
2018,09,17,07,32,5.80
2018,09,17,07,33,5.80
2018,09,17,07,34,5.80
2018,09,17,07,35,5.90
2018,09,17,07,36,5.90
2018,09,17,07,37,5.90
2018,09,17,07,38,5.90
2018,09,17,07,39,5.90
2018,09,17,07,40,6.00
2018,09,17,07,41,6.00
2018,09,17,07,42,6.10
2018,09,17,07,43,6.10
2018,09,17,07,44,6.10
2018,09,17,07,45,6.20
2018,09,17,07,46,6.20
2018,09,17,07,47,6.20
2018,09,17,07,48,6.30
2018,09,17,07,49,6.30
2018,09,17,07,50,6.30
2018,09,17,07,51,6.30
2018,09,17,07,52,6.40
2018,09,17,07,53,6.40
2018,09,17,07,54,6.40
2018,09,17,07,55,6.40
2018,09,17,07,56,6.40
2018,09,17,07,57,6.50
2018,09,17,07,58,6.50
2018,09,17,07,59,6.50
2018,09,17,08,00,6.60
2018,09,17,08,01,6.60
2018,09,17,08,02,6.60
2018,09,17,08,03,6.70
2018,09,17,08,04,6.70
2018,09,17,08,05,6.70
2018,09,17,08,06,6.80
2018,09,17,08,07,6.80
2018,09,17,08,08,6.90
2018,09,17,08,09,6.90
2018,09,17,08,10,6.90
2018,09,17,08,11,6.90
2018,09,17,08,12,7.00
2018,09,17,08,13,7.00
2018,09,17,08,14,7.00
2018,09,17,08,15,7.10
2018,09,17,08,16,7.10
2018,09,17,08,17,7.20
2018,09,17,08,18,7.20
2018,09,17,08,19,7.30
2018,09,17,08,20,7.30
2018,09,17,08,21,7.40
2018,09,17,08,22,7.40
2018,09,17,08,23,7.50
2018,09,17,08,24,7.50
2018,09,17,08,25,7.60
2018,09,17,08,26,7.60
2018,09,17,08,27,7.70
2018,09,17,08,28,7.70
2018,09,17,08,29,7.80
2018,09,17,08,30,7.80
2018,09,17,08,31,8.00
2018,09,17,08,32,8.00
2018,09,17,08,33,8.10
2018,09,17,08,34,8.20
2018,09,17,08,35,8.20
2018,09,17,08,36,8.20
2018,09,17,08,37,8.30
2018,09,17,08,38,8.30
2018,09,17,08,39,8.40
2018,09,17,08,40,8.50
2018,09,17,08,41,8.60
2018,09,17,08,42,8.70
2018,09,17,08,43,8.80
2018,09,17,08,44,8.90
2018,09,17,08,45,9.00
2018,09,17,08,46,9.10
2018,09,17,08,47,9.20
2018,09,17,08,48,9.30
2018,09,17,08,49,9.30
2018,09,17,08,50,9.40
2018,09,17,08,51,9.40
2018,09,17,08,52,9.50
2018,09,17,08,53,9.60
2018,09,17,08,54,9.60
2018,09,17,08,55,9.60
2018,09,17,08,56,9.60
2018,09,17,08,57,9.60
2018,09,17,08,58,9.50
2018,09,17,08,59,9.50
2018,09,17,09,00,9.50
2018,09,17,09,01,9.50
2018,09,17,09,02,9.50
2018,09,17,09,03,9.60
2018,09,17,09,04,9.60
2018,09,17,09,05,9.70
2018,09,17,09,06,9.80
2018,09,17,09,07,9.80
2018,09,17,09,08,9.90
2018,09,17,09,09,10.10
2018,09,17,09,10,10.20
2018,09,17,09,11,10.30
2018,09,17,09,12,10.40
2018,09,17,09,13,10.50
2018,09,17,09,14,10.70
2018,09,17,09,15,10.80
2018,09,17,09,16,10.90
2018,09,17,09,17,10.90
2018,09,17,09,18,11.00
2018,09,17,09,19,11.10
2018,09,17,09,20,11.10
2018,09,17,09,21,11.20
2018,09,17,09,22,11.20
2018,09,17,09,23,11.20
2018,09,17,09,24,11.20
2018,09,17,09,25,11.30
2018,09,17,09,26,11.30
2018,09,17,09,27,11.30
2018,09,17,09,28,11.30
2018,09,17,09,29,11.30
2018,09,17,09,30,11.40
2018,09,17,09,31,11.50
2018,09,17,09,32,11.60
2018,09,17,09,33,11.70
2018,09,17,09,34,11.80
2018,09,17,09,35,12.00
2018,09,17,09,36,12.10
2018,09,17,09,37,12.20
2018,09,17,09,38,12.30
2018,09,17,09,39,12.40
2018,09,17,09,40,12.40
2018,09,17,09,41,12.40
2018,09,17,09,42,12.40
2018,09,17,09,43,12.40
2018,09,17,09,44,12.50
2018,09,17,09,45,12.50
2018,09,17,09,46,12.60
2018,09,17,09,47,12.70
2018,09,17,09,48,12.80
2018,09,17,09,49,12.80
2018,09,17,09,50,12.80
2018,09,17,09,51,12.80
2018,09,17,09,52,12.70
2018,09,17,09,53,12.60
2018,09,17,09,54,12.60
2018,09,17,09,55,12.50
2018,09,17,09,56,12.60
2018,09,17,09,57,12.60
2018,09,17,09,58,12.60
2018,09,17,09,59,12.70
2018,09,17,10,00,12.70
2018,09,17,10,01,12.70
2018,09,17,10,02,12.70
2018,09,17,10,03,12.80
2018,09,17,10,04,12.80
2018,09,17,10,05,12.90
2018,09,17,10,06,12.90
2018,09,17,10,07,13.00
2018,09,17,10,08,13.00
2018,09,17,10,09,13.10
2018,09,17,10,10,13.20
2018,09,17,10,11,13.20
2018,09,17,10,12,13.20
2018,09,17,10,13,13.20
2018,09,17,10,14,13.20
2018,09,17,10,15,13.20
2018,09,17,10,16,13.20
2018,09,17,10,17,13.20
2018,09,17,10,18,13.30
2018,09,17,10,19,13.30
2018,09,17,10,20,13.30
2018,09,17,10,21,13.40
2018,09,17,10,22,13.40
2018,09,17,10,23,13.50
2018,09,17,10,24,13.60
2018,09,17,10,25,13.60
2018,09,17,10,26,13.70
2018,09,17,10,27,13.70
2018,09,17,10,28,13.80
2018,09,17,10,29,13.80
2018,09,17,10,30,13.80
2018,09,17,10,31,13.80
2018,09,17,10,32,13.80
2018,09,17,10,33,13.80
2018,09,17,10,34,13.80
2018,09,17,10,35,13.80
2018,09,17,10,36,13.80
2018,09,17,10,37,13.80
2018,09,17,10,38,13.80
2018,09,17,10,39,13.80
2018,09,17,10,40,13.90
2018,09,17,10,41,14.00
2018,09,17,10,42,14.10
2018,09,17,10,43,14.10
2018,09,17,10,44,14.20
2018,09,17,10,45,14.30
2018,09,17,10,46,14.30
2018,09,17,10,47,14.40
2018,09,17,10,48,14.30
2018,09,17,10,49,14.20
2018,09,17,10,50,14.20
2018,09,17,10,51,14.10
2018,09,17,10,52,14.00
2018,09,17,10,53,13.90
2018,09,17,10,54,13.90
2018,09,17,10,55,13.70
2018,09,17,10,56,13.60
2018,09,17,10,57,13.40
2018,09,17,10,58,13.30
2018,09,17,10,59,13.20
2018,09,17,11,00,13.20
2018,09,17,11,01,13.20
2018,09,17,11,02,13.20
2018,09,17,11,03,13.30
2018,09,17,11,04,13.30
2018,09,17,11,05,13.40
2018,09,17,11,06,13.50
2018,09,17,11,07,13.60
2018,09,17,11,08,13.70
2018,09,17,11,09,13.70
2018,09,17,11,10,13.80
2018,09,17,11,11,13.90
2018,09,17,11,12,14.00
2018,09,17,11,13,14.00
2018,09,17,11,14,14.10
2018,09,17,11,15,14.10
2018,09,17,11,16,14.10
2018,09,17,11,17,14.00
2018,09,17,11,18,13.90
2018,09,17,11,19,14.00
2018,09,17,11,20,14.00
2018,09,17,11,21,14.00
2018,09,17,11,22,14.10
2018,09,17,11,23,14.20
2018,09,17,11,24,14.30
2018,09,17,11,25,14.30
2018,09,17,11,26,14.50
2018,09,17,11,27,14.60
2018,09,17,11,28,14.60
2018,09,17,11,29,14.60
2018,09,17,11,30,14.60
2018,09,17,11,31,14.60
2018,09,17,11,32,14.60
2018,09,17,11,33,14.60
2018,09,17,11,34,14.60
2018,09,17,11,35,14.60
2018,09,17,11,36,14.70
2018,09,17,11,37,14.70
2018,09,17,11,38,14.80
2018,09,17,11,39,14.70
2018,09,17,11,40,14.70
2018,09,17,11,41,14.70
2018,09,17,11,42,14.70
2018,09,17,11,43,14.80
2018,09,17,11,44,14.80
2018,09,17,11,45,14.70
2018,09,17,11,46,14.70
2018,09,17,11,47,14.60
2018,09,17,11,48,14.60
2018,09,17,11,49,14.60
2018,09,17,11,50,14.70
2018,09,17,11,51,14.70
2018,09,17,11,52,14.70
2018,09,17,11,53,14.80
2018,09,17,11,54,14.80
2018,09,17,11,55,14.90
2018,09,17,11,56,14.90
2018,09,17,11,57,14.90
2018,09,17,11,58,15.00
2018,09,17,11,59,15.10
2018,09,17,12,00,15.10
2018,09,17,12,01,15.10
2018,09,17,12,02,15.10
2018,09,17,12,03,15.20
2018,09,17,12,04,15.30
2018,09,17,12,05,15.30
2018,09,17,12,06,15.30
2018,09,17,12,07,15.30
2018,09,17,12,08,15.30
2018,09,17,12,09,15.30
2018,09,17,12,10,15.30
2018,09,17,12,11,15.40
2018,09,17,12,12,15.40
2018,09,17,12,13,15.40
2018,09,17,12,14,15.40
2018,09,17,12,15,15.50
2018,09,17,12,16,15.50
2018,09,17,12,17,15.60
2018,09,17,12,18,15.60
2018,09,17,12,19,15.60
2018,09,17,12,20,15.50
2018,09,17,12,21,15.50
2018,09,17,12,22,15.40
2018,09,17,12,23,15.40
2018,09,17,12,24,15.40
2018,09,17,12,25,15.50
2018,09,17,12,26,15.60
2018,09,17,12,27,15.70
2018,09,17,12,28,15.80
2018,09,17,12,29,15.90
2018,09,17,12,30,16.00
2018,09,17,12,31,16.00
2018,09,17,12,32,16.10
2018,09,17,12,33,16.20
2018,09,17,12,34,16.20
2018,09,17,12,35,16.20
2018,09,17,12,36,16.20
2018,09,17,12,37,16.30
2018,09,17,12,38,16.30
2018,09,17,12,39,16.30
2018,09,17,12,40,16.30
2018,09,17,12,41,16.20
2018,09,17,12,42,16.20
2018,09,17,12,43,16.20
2018,09,17,12,44,16.20
2018,09,17,12,45,16.30
2018,09,17,12,46,16.40
2018,09,17,12,47,16.40
2018,09,17,12,48,16.50
2018,09,17,12,49,16.60
2018,09,17,12,50,16.60
2018,09,17,12,51,16.70
2018,09,17,12,52,16.80
2018,09,17,12,53,16.80
2018,09,17,12,54,16.70
2018,09,17,12,55,16.50
2018,09,17,12,56,16.40
2018,09,17,12,57,16.30
2018,09,17,12,58,16.30
2018,09,17,12,59,16.40
2018,09,17,13,00,16.40
2018,09,17,13,01,16.50
2018,09,17,13,02,16.60
2018,09,17,13,03,16.50
2018,09,17,13,04,16.50
2018,09,17,13,05,16.40
2018,09,17,13,06,16.50
2018,09,17,13,07,16.40
2018,09,17,13,08,16.30
2018,09,17,13,09,16.30
2018,09,17,13,10,16.30
2018,09,17,13,11,16.40
2018,09,17,13,12,16.50
2018,09,17,13,13,16.60
2018,09,17,13,14,16.60
2018,09,17,13,15,16.60
2018,09,17,13,16,16.50
2018,09,17,13,17,16.40
2018,09,17,13,18,16.30
2018,09,17,13,19,16.20
2018,09,17,13,20,16.10
2018,09,17,13,21,16.00
2018,09,17,13,22,16.00
2018,09,17,13,23,16.10
2018,09,17,13,24,16.20
2018,09,17,13,25,16.20
2018,09,17,13,26,16.30
2018,09,17,13,27,16.40
2018,09,17,13,28,16.40
2018,09,17,13,29,16.50
2018,09,17,13,30,16.60
2018,09,17,13,31,16.60
2018,09,17,13,32,16.50
2018,09,17,13,33,16.40
2018,09,17,13,34,16.40
2018,09,17,13,35,16.30
2018,09,17,13,36,16.30
2018,09,17,13,37,16.30
2018,09,17,13,38,16.30
2018,09,17,13,39,16.30
2018,09,17,13,40,16.30
2018,09,17,13,41,16.40
2018,09,17,13,42,16.40
2018,09,17,13,43,16.50
2018,09,17,13,44,16.50
2018,09,17,13,45,16.50
2018,09,17,13,46,16.60
2018,09,17,13,47,16.60
2018,09,17,13,48,16.60
2018,09,17,13,49,16.70
2018,09,17,13,50,16.70
2018,09,17,13,51,16.70
2018,09,17,13,52,16.70
2018,09,17,13,53,16.70
2018,09,17,13,54,16.70
2018,09,17,13,55,16.80
2018,09,17,13,56,16.80
2018,09,17,13,57,16.80
2018,09,17,13,58,16.90
2018,09,17,13,59,16.90
2018,09,17,14,00,16.80
2018,09,17,14,01,16.80
2018,09,17,14,02,16.70
2018,09,17,14,03,16.60
2018,09,17,14,04,16.60
2018,09,17,14,05,16.70
2018,09,17,14,06,16.80
2018,09,17,14,07,16.90
2018,09,17,14,08,16.90
2018,09,17,14,09,16.90
2018,09,17,14,10,16.90
2018,09,17,14,11,16.90
2018,09,17,14,12,16.90
2018,09,17,14,13,16.90
2018,09,17,14,14,16.90
2018,09,17,14,15,17.00
2018,09,17,14,16,17.00
2018,09,17,14,17,17.10
2018,09,17,14,18,17.10
2018,09,17,14,19,17.10
2018,09,17,14,20,17.10
2018,09,17,14,21,17.00
2018,09,17,14,22,16.90
2018,09,17,14,23,16.80
2018,09,17,14,24,17.00
2018,09,17,14,25,17.10
2018,09,17,14,26,17.10
2018,09,17,14,27,17.20
2018,09,17,14,28,17.20
2018,09,17,14,29,17.20
2018,09,17,14,30,17.30
2018,09,17,14,31,17.20
2018,09,17,14,32,17.10
2018,09,17,14,33,16.90
2018,09,17,14,34,16.80
2018,09,17,14,35,16.90
2018,09,17,14,36,16.90
2018,09,17,14,37,16.90
2018,09,17,14,38,16.90
2018,09,17,14,39,16.90
2018,09,17,14,40,17.00
2018,09,17,14,41,17.10
2018,09,17,14,42,17.20
2018,09,17,14,43,17.20
2018,09,17,14,44,17.20
2018,09,17,14,45,17.30
2018,09,17,14,46,17.40
2018,09,17,14,47,17.40
2018,09,17,14,48,17.40
2018,09,17,14,49,17.50
2018,09,17,14,50,17.60
2018,09,17,14,51,17.70
2018,09,17,14,52,17.80
2018,09,17,14,53,17.80
2018,09,17,14,54,17.70
2018,09,17,14,55,17.50
2018,09,17,14,56,17.40
2018,09,17,14,57,17.30
2018,09,17,14,58,17.10
2018,09,17,14,59,16.90
2018,09,17,15,00,16.80
2018,09,17,15,01,16.80
2018,09,17,15,02,16.80
2018,09,17,15,03,16.90
2018,09,17,15,04,17.00
2018,09,17,15,05,17.10
2018,09,17,15,06,17.20
2018,09,17,15,07,17.20
2018,09,17,15,08,17.20
2018,09,17,15,09,17.20
2018,09,17,15,10,17.20
2018,09,17,15,11,17.10
2018,09,17,15,12,17.00
2018,09,17,15,13,16.90
2018,09,17,15,14,16.90
2018,09,17,15,15,16.90
2018,09,17,15,16,16.90
2018,09,17,15,17,16.90
2018,09,17,15,18,16.90
2018,09,17,15,19,17.00
2018,09,17,15,20,17.00
2018,09,17,15,21,17.10
2018,09,17,15,22,17.10
2018,09,17,15,23,17.10
2018,09,17,15,24,17.00
2018,09,17,15,25,16.90
2018,09,17,15,26,17.00
2018,09,17,15,27,16.90
2018,09,17,15,28,16.70
2018,09,17,15,29,16.60
2018,09,17,15,30,16.50
2018,09,17,15,31,16.60
2018,09,17,15,32,16.70
2018,09,17,15,33,16.90
2018,09,17,15,34,17.00
2018,09,17,15,35,17.10
2018,09,17,15,36,17.10
2018,09,17,15,37,17.10
2018,09,17,15,38,17.20
2018,09,17,15,39,17.30
2018,09,17,15,40,17.40
2018,09,17,15,41,17.40
2018,09,17,15,42,17.50
2018,09,17,15,43,17.40
2018,09,17,15,44,17.40
2018,09,17,15,45,17.40
2018,09,17,15,46,17.40
2018,09,17,15,47,17.40
2018,09,17,15,48,17.40
2018,09,17,15,49,17.40
2018,09,17,15,50,17.40
2018,09,17,15,51,17.40
2018,09,17,15,52,17.40
2018,09,17,15,53,17.40
2018,09,17,15,54,17.40
2018,09,17,15,55,17.40
2018,09,17,15,56,17.40
2018,09,17,15,57,17.50
2018,09,17,15,58,17.50
2018,09,17,15,59,17.50
2018,09,17,16,00,17.50
2018,09,17,16,01,17.40
2018,09,17,16,02,17.30
2018,09,17,16,03,17.30
2018,09,17,16,04,17.30
2018,09,17,16,05,17.30
2018,09,17,16,06,17.30
2018,09,17,16,07,17.30
2018,09,17,16,08,17.30
2018,09,17,16,09,17.40
2018,09,17,16,10,17.40
2018,09,17,16,11,17.50
2018,09,17,16,12,17.60
2018,09,17,16,13,17.60
2018,09,17,16,14,17.70
2018,09,17,16,15,17.70
2018,09,17,16,16,17.70
2018,09,17,16,17,17.70
2018,09,17,16,18,17.70
2018,09,17,16,19,17.70
2018,09,17,16,20,17.70
2018,09,17,16,21,17.70
2018,09,17,16,22,17.70
2018,09,17,16,23,17.60
2018,09,17,16,24,17.60
2018,09,17,16,25,17.50
2018,09,17,16,26,17.50
2018,09,17,16,27,17.40
2018,09,17,16,28,17.40
2018,09,17,16,29,17.40
2018,09,17,16,30,17.50
2018,09,17,16,31,17.60
2018,09,17,16,32,17.60
2018,09,17,16,33,17.70
2018,09,17,16,34,17.80
2018,09,17,16,35,17.80
2018,09,17,16,36,17.80
2018,09,17,16,37,17.90
2018,09,17,16,38,17.90
2018,09,17,16,39,17.90
2018,09,17,16,40,17.90
2018,09,17,16,41,17.80
2018,09,17,16,42,17.80
2018,09,17,16,43,17.70
2018,09,17,16,44,17.60
2018,09,17,16,45,17.60
2018,09,17,16,46,17.50
2018,09,17,16,47,17.40
2018,09,17,16,48,17.40
2018,09,17,16,49,17.40
2018,09,17,16,50,17.40
2018,09,17,16,51,17.40
2018,09,17,16,52,17.40
2018,09,17,16,53,17.40
2018,09,17,16,54,17.40
2018,09,17,16,55,17.30
2018,09,17,16,56,17.30
2018,09,17,16,57,17.30
2018,09,17,16,58,17.30
2018,09,17,16,59,17.20
2018,09,17,17,00,17.20
2018,09,17,17,01,17.10
2018,09,17,17,02,17.10
2018,09,17,17,03,17.10
2018,09,17,17,04,17.10
2018,09,17,17,05,17.20
2018,09,17,17,06,17.20
2018,09,17,17,07,17.30
2018,09,17,17,08,17.30
2018,09,17,17,09,17.30
2018,09,17,17,10,17.30
2018,09,17,17,11,17.30
2018,09,17,17,12,17.20
2018,09,17,17,13,17.20
2018,09,17,17,14,17.10
2018,09,17,17,15,17.10
2018,09,17,17,16,17.10
2018,09,17,17,17,17.10
2018,09,17,17,18,17.00
2018,09,17,17,19,17.00
2018,09,17,17,20,17.00
2018,09,17,17,21,17.00
2018,09,17,17,22,16.90
2018,09,17,17,23,16.90
2018,09,17,17,24,16.80
2018,09,17,17,25,16.80
2018,09,17,17,26,16.70
2018,09,17,17,27,16.60
2018,09,17,17,28,16.60
2018,09,17,17,29,16.60
2018,09,17,17,30,16.50
2018,09,17,17,31,16.50
2018,09,17,17,32,16.50
2018,09,17,17,33,16.60
2018,09,17,17,34,16.50
2018,09,17,17,35,16.50
2018,09,17,17,36,16.40
2018,09,17,17,37,16.40
2018,09,17,17,38,16.30
2018,09,17,17,39,16.30
2018,09,17,17,40,16.30
2018,09,17,17,41,16.30
2018,09,17,17,42,16.30
2018,09,17,17,43,16.20
2018,09,17,17,44,16.20
2018,09,17,17,45,16.20
2018,09,17,17,46,16.20
2018,09,17,17,47,16.20
2018,09,17,17,48,16.20
2018,09,17,17,49,16.20
2018,09,17,17,50,16.20
2018,09,17,17,51,16.20
2018,09,17,17,52,16.20
2018,09,17,17,53,16.20
2018,09,17,17,54,16.20
2018,09,17,17,55,16.20
2018,09,17,17,56,16.10
2018,09,17,17,57,16.10
2018,09,17,17,58,16.10
2018,09,17,17,59,16.10
2018,09,17,18,00,16.00
2018,09,17,18,01,16.00
2018,09,17,18,02,16.00
2018,09,17,18,03,15.90
2018,09,17,18,04,15.90
2018,09,17,18,05,15.90
2018,09,17,18,06,15.90
2018,09,17,18,07,15.80
2018,09,17,18,08,15.80
2018,09,17,18,09,15.80
2018,09,17,18,10,15.80
2018,09,17,18,11,15.70
2018,09,17,18,12,15.70
2018,09,17,18,13,15.70
2018,09,17,18,14,15.60
2018,09,17,18,15,15.60
2018,09,17,18,16,15.60
2018,09,17,18,17,15.50
2018,09,17,18,18,15.50
2018,09,17,18,19,15.50
2018,09,17,18,20,15.50
2018,09,17,18,21,15.40
2018,09,17,18,22,15.40
2018,09,17,18,23,15.40
2018,09,17,18,24,15.40
2018,09,17,18,25,15.40
2018,09,17,18,26,15.40
2018,09,17,18,27,15.30
2018,09,17,18,28,15.30
2018,09,17,18,29,15.30
2018,09,17,18,30,15.30
2018,09,17,18,31,15.30
2018,09,17,18,32,15.20
2018,09,17,18,33,15.20